Regional Weather Roundup
Issued by NWS Cleveland, OH

Home | Current Version | Previous Version | Graphics & Text | Print | Product List | Glossary On
Versions: 1 2 3 4 5 6 7 8 9 10 11 12 13 14 15 16 17 18 19 20 21 22 23 24 25 26 27 28 29 30 31 32 33 34 35 36 37 38 39 40 41 42 43 44 45 46 47 48 49 50
000
ASUS41 KCLE 280200
RWRCLE
OHIO REGIONAL WEATHER ROUNDUP
NATIONAL WEATHER SERVICE WILMINGTON, OH
900 PM EST TUE JAN 27 2015

NOTE: "FAIR" INDICATES FEW OR NO CLOUDS BELOW 12,000 FEET WITH NO
SIGNIFICANT WEATHER AND/OR OBSTRUCTIONS TO VISIBILITY.

OHZ001>008-015>018-024>027-034-035-043-044-280300-
   NORTHWEST OHIO

CITY           SKY/WX    TMP DP  RH WIND       PRES   REMARKS
DEFIANCE       CLEAR     19   9  65 N5        30.23R WCI  12
FINDLAY        PTCLDY    14   8  77 W6        30.19S WCI   5
TOLEDO EXPRESS CLEAR     19  10  68 N6        30.22R WCI  11
TOLEDO EXEC    CLEAR     21  11  65 N8        30.22R WCI  11
LIMA           PTCLDY    14  10  84 SW5       30.20R WCI   6
$$

OHZ009>014-019>023-028>033-038-089-280300-
   NORTHEAST OHIO

CITY           SKY/WX    TMP DP  RH WIND       PRES   REMARKS
CLE-HOPKINS    CLOUDY    19  13  77 NW5       30.19S WCI  12
CLE-LAKEFRONT  CLEAR     15  11  83 W3        30.18R
CUY CO. ARPT   MOCLDY    19  16  86 N8        30.16R WCI   9
LORAIN-ELYRIA  PTCLDY    18  13  80 NE14      30.18R WCI   4
ASHTABULA      CLOUDY    17  12  80 W6        30.13S WCI   9
AKRON-CANTON   PTCLDY    12   6  77 NW7       30.12R WCI   1
WOOSTER        NOT AVBL
MANSFIELD      CLEAR     13   8  81 NW6       30.14R WCI   4
YOUNGSTOWN     FLURRIES  13   8  81 NW7       30.10R WCI   3
$$

OHZ042-051>053-060>062-070>072-077>081-280300-
  SOUTHWEST OHIO

CITY           SKY/WX    TMP DP  RH WIND       PRES   REMARKS
CINC-COVINGTON CLEAR     21  13  71 N9        30.22R WCI  11
CINC-LUNKEN    CLEAR     21  13  71 N9        30.27R WCI  11
HAMILTON       CLEAR     17  12  80 CALM      30.26R
DAYTON         NOT AVBL
WRIGHT-PAT AFB NOT AVBL
DAYTON GENERAL CLEAR     18  12  77 N5        30.21R WCI  11
WILMINGTON     CLEAR     16   9  74 N6        30.20R WCI   7
$$

OHZ036-037-039>041-045>050-054>059-063>069-073>076-082>088-280300-
  CENTRAL AND SOUTHEAST OHIO

CITY           SKY/WX    TMP DP  RH WIND       PRES   REMARKS
COLUMBUS       PTCLDY    16  10  77 NW6       30.20R WCI   7
OSU AIRPORT    PTCLDY    13   9  84 W7        30.20R WCI   3
BOLTON FIELD   NOT AVBL
RICKENBACK AFB NOT AVBL
NEWARK         PTCLDY    11   7  84 NW3       30.18R
MARION         MOCLDY    10   5  80 W3        30.19R
LANCASTER      CLEAR     13   9  84 NW5       30.20R WCI   5
ZANESVILLE     PTCLDY    16   9  74 NW3       30.16R
NEW PHILLY     CLOUDY    17   9  70 NW7       30.16R WCI   8
$$


USA.gov is the U.S. government's official web portal to all federal, state and local government web resources and services.